This demonstration page uses our WeatherBlox Daily Observations layout. Learn more.

Left ArrowRight Arrow

Hourly Observations for January 11, 2022

Temp ( °F °C ) Dew Point ( °F °C ) Humidity (%) Winds ( mph kmh ) Pressure ( in mb ) Visibility ( mi km ) Precip ( " mm )
12:15 am 00:15 Mostly Cloudy 27 -3 14 -10 59 59 NW 16 26 30.36 1028 10 16 N/A
12:35 am 00:35 Cloudy 27 -3 14 -10 59 59 NNW 14 22 30.36 1028 10 16 N/A
12:55 am 00:55 Cloudy 28 -2 14 -10 55 55 NW 16 26 30.38 1029 10 16 N/A
1:15 am 01:15 Partly Cloudy 27 -3 14 -10 59 59 NW 17 28 30.38 1029 10 16 N/A
1:35 am 01:35 Partly Cloudy 28 -2 14 -10 55 55 NW 23 37 30.39 1029 10 16 N/A
1:55 am 01:55 Cloudy 28 -2 14 -10 55 55 NNW 12 19 30.41 1030 10 16 N/A
2:15 am 02:15 Cloudy 27 -3 14 -10 59 59 N 7 11 30.42 1030 10 16 N/A
2:35 am 02:35 Mostly Cloudy 27 -3 16 -9 64 64 NNW 10 17 30.43 1030 10 16 N/A
2:55 am 02:55 Mostly Cloudy 27 -3 14 -10 59 59 NNW 13 20 30.44 1031 10 16 N/A
3:15 am 03:15 Cloudy 27 -3 14 -10 59 59 NNW 14 22 30.45 1031 10 16 N/A
3:35 am 03:35 Cloudy 27 -3 12 -11 54 54 N 13 20 30.46 1031 10 16 N/A
3:55 am 03:55 Cloudy 25 -4 12 -11 59 59 N 15 24 30.46 1031 10 16 N/A
4:15 am 04:15 Mostly Cloudy 25 -4 9 -13 50 50 NNW 13 20 30.47 1032 10 16 N/A
4:35 am 04:35 Partly Cloudy 25 -4 9 -13 50 50 NNW 13 20 30.48 1032 10 16 N/A
4:55 am 04:55 Clear 23 -5 9 -13 54 54 NNW 22 35 30.49 1033 10 16 N/A
5:15 am 05:15 Clear 23 -5 9 -13 54 54 NNW 17 28 30.50 1033 10 16 N/A
5:35 am 05:35 Partly Cloudy 23 -5 9 -13 54 54 NNW 10 17 30.51 1033 10 16 N/A
5:55 am 05:55 Mostly Cloudy 23 -5 10 -12 58 58 NNW 15 24 30.52 1034 10 16 N/A
6:15 am 06:15 Mostly Cloudy 23 -5 14 -10 68 68 N 13 20 30.54 1034 10 16 N/A
6:35 am 06:35 Cloudy 21 -6 12 -11 68 68 N 9 15 30.55 1035 10 16 N/A
6:55 am 06:55 Cloudy 21 -6 10 -12 63 63 NNW 17 28 30.56 1035 10 16 N/A
7:15 am 07:15 Partly Cloudy 21 -6 9 -13 58 58 N 14 22 30.57 1035 10 16 N/A
7:35 am 07:35 Partly Cloudy 21 -6 9 -13 58 58 NNW 12 19 30.58 1036 10 16 N/A
7:55 am 07:55 Partly Cloudy 21 -6 7 -14 54 54 NNW 13 20 30.59 1036 10 16 N/A
8:15 am 08:15 Partly Cloudy 21 -6 7 -14 54 54 N 17 28 30.60 1036 10 16 N/A
8:35 am 08:35 Sunny 21 -6 5 -15 49 49 N 15 24 30.61 1037 10 16 N/A
8:55 am 08:55 Sunny 21 -6 5 -15 49 49 NNW 16 26 30.61 1037 10 16 N/A
9:15 am 09:15 Sunny 21 -6 5 -15 49 49 NNW 9 15 30.62 1037 10 16 N/A
9:35 am 09:35 Sunny 21 -6 5 -15 49 49 NNW 16 26 30.62 1037 10 16 N/A
9:55 am 09:55 Sunny 23 -5 5 -15 46 46 NNW 10 17 30.64 1038 10 16 N/A
10:15 am 10:15 Sunny 23 -5 5 -15 46 46 N 12 19 30.65 1038 10 16 N/A
10:35 am 10:35 Sunny 23 -5 7 -14 50 50 NW 9 15 30.65 1038 10 16 N/A
10:55 am 10:55 Sunny 23 -5 5 -15 46 46 N 13 20 30.64 1038 10 16 N/A
11:15 am 11:15 Sunny 25 -4 9 -13 50 50 N 10 17 30.62 1037 10 16 N/A
11:35 am 11:35 Sunny 25 -4 5 -15 42 42 N 8 13 30.61 1037 10 16 N/A
11:55 am 11:55 Sunny 27 -3 7 -14 43 43 N 9 15 30.60 1036 10 16 N/A
12:15 pm 12:15 Sunny 27 -3 9 -13 46 46 NW 8 13 30.60 1036 10 16 N/A
12:35 pm 12:35 Sunny 27 -3 9 -13 46 46 N 7 11 30.60 1036 10 16 N/A
12:55 pm 12:55 Sunny 27 -3 9 -13 46 46 NNW 8 13 30.59 1036 10 16 N/A
1:15 pm 13:15 Sunny 28 -2 9 -13 43 43 NW 10 17 30.58 1035 10 16 N/A
1:35 pm 13:35 Sunny 27 -3 9 -13 46 46 NW 7 11 30.58 1035 10 16 N/A
1:55 pm 13:55 Sunny 28 -2 9 -13 43 43 NW 5 7 30.58 1035 10 16 N/A
2:15 pm 14:15 Sunny 28 -2 9 -13 43 43 N N/A 30.57 1035 10 16 N/A
2:35 pm 14:35 Sunny 28 -2 9 -13 43 43 WNW 5 7 30.56 1035 10 16 N/A
2:55 pm 14:55 Sunny 28 -2 9 -13 43 43 NNW 8 13 30.57 1035 10 16 N/A
3:15 pm 15:15 Sunny 28 -2 9 -13 43 43 N N/A 30.56 1035 10 16 N/A
3:35 pm 15:35 Sunny 28 -2 9 -13 43 43 N N/A 30.56 1035 10 16 N/A
3:55 pm 15:55 Sunny 28 -2 9 -13 43 43 NW 3 6 30.56 1035 10 16 N/A
4:15 pm 16:15 Sunny 28 -2 9 -13 43 43 N N/A 30.56 1035 10 16 N/A
4:35 pm 16:35 Sunny 27 -3 9 -13 46 46 N N/A 30.56 1035 10 16 N/A
4:55 pm 16:55 Sunny 27 -3 9 -13 46 46 N N/A 30.56 1035 10 16 N/A
5:15 pm 17:15 Clear 27 -3 9 -13 46 46 NE 3 6 30.56 1035 10 16 N/A
5:35 pm 17:35 Clear 27 -3 10 -12 50 50 NE 3 6 30.55 1034 10 16 N/A
5:55 pm 17:55 Clear 27 -3 9 -13 46 46 N N/A 30.55 1034 10 16 N/A
6:15 pm 18:15 Clear 27 -3 9 -13 46 46 SE 3 6 30.56 1035 10 16 N/A
6:35 pm 18:35 Clear 27 -3 9 -13 46 46 N N/A 30.57 1035 10 16 N/A
6:55 pm 18:55 Clear 25 -4 10 -12 54 54 N N/A 30.57 1035 10 16 N/A
7:15 pm 19:15 Clear 25 -4 10 -12 54 54 SE 5 7 30.57 1035 10 16 N/A
7:35 pm 19:35 Clear 25 -4 9 -13 50 50 N N/A 30.57 1035 10 16 N/A
7:55 pm 19:55 Clear 27 -3 9 -13 46 46 SSE 5 7 30.57 1035 10 16 N/A
8:15 pm 20:15 Clear 27 -3 9 -13 46 46 SSE 5 7 30.56 1035 10 16 N/A
8:35 pm 20:35 Clear 23 -5 12 -11 63 63 SSE 6 9 30.54 1034 10 16 N/A
8:55 pm 20:55 Clear 23 -5 12 -11 63 63 S 5 7 30.54 1034 10 16 N/A
9:15 pm 21:15 Clear 21 -6 12 -11 68 68 S 6 9 30.54 1034 10 16 N/A
9:35 pm 21:35 Clear 23 -5 12 -11 63 63 S 6 9 30.53 1034 10 16 N/A
9:55 pm 21:55 Clear 21 -6 12 -11 68 68 SSW 5 7 30.52 1034 10 16 N/A
10:15 pm 22:15 Clear 21 -6 12 -11 68 68 SSW 5 7 30.52 1034 10 16 N/A
10:35 pm 22:35 Clear 21 -6 12 -11 68 68 S 7 11 30.51 1033 10 16 N/A
10:55 pm 22:55 Clear 21 -6 12 -11 68 68 S 7 11 30.50 1033 10 16 N/A
11:15 pm 23:15 Clear 21 -6 12 -11 68 68 S 7 11 30.50 1033 10 16 N/A
11:35 pm 23:35 Clear 21 -6 12 -11 68 68 S 3 6 30.50 1033 10 16 N/A
11:55 pm 23:55 Clear 21 -6 12 -11 68 68 S 7 11 30.48 1032 10 16 N/A

Powered by AerisWeather